GW3555 Weather Reports


Display with metric or nautical units.
time (UTC)temp
F
wind
direction
speed
MPH
gust
MPH
rain 1hr
in
rain 24hr
in
rain mn
in
humidity
%
barometer
mb
20260505114032 51 227 3.0 4.0 0.00 0.00 0.00 66 1012.6
20260505113532 51 241 2.0 5.0 0.00 0.00 0.00 67 1012.5
20260505113111 51 238 3.0 5.0 0.00 0.00 0.00 66 1012.5
20260505112539 51 229 3.0 5.0 0.00 0.00 0.00 66 1012.6
20260505112019 51 238 3.0 5.0 0.00 0.00 0.00 66 1012.5
20260505111628 51 229 3.0 5.0 0.00 0.00 0.00 65 1012.6
20260505111019 52 234 2.0 4.0 0.00 0.00 0.00 65 1012.5
20260505110543 52 227 3.0 5.0 0.00 0.00 0.00 65 1012.6
20260505110158 52 223 2.0 5.0 0.00 0.00 0.00 64 1012.5
20260505102041 52 231 3.0 5.0 0.00 0.00 0.00 63 1012.4
20260505101645 52 237 2.0 4.0 0.00 0.00 0.00 63 1012.3
20260505101038 52 232 3.0 4.0 0.00 0.00 0.00 64 1012.4
20260505100537 52 234 2.0 4.0 0.00 0.00 0.00 63 1012.4
20260505100125 52 235 2.0 4.0 0.00 0.00 0.00 63 1012.3
20260505095517 53 230 2.0 4.0 0.00 0.00 0.00 63 1012.3
20260505095046 53 235 3.0 4.0 0.00 0.00 0.00 62 1012.4
20260505094632 52 242 3.0 4.0 0.00 0.00 0.00 63 1012.3
20260505094018 52 234 2.0 4.0 0.00 0.00 0.00 63 1012.3
20260505093531 53 229 2.0 4.0 0.00 0.00 0.00 63 1012.4
20260505093145 53 239 2.0 5.0 0.00 0.00 0.00 62 1012.3
20260505092606 53 223 3.0 5.0 0.00 0.00 0.00 61 1012.3
20260505092056 53 246 2.0 5.0 0.00 0.00 0.00 61 1012.3
20260505091635 53 232 3.0 5.0 0.00 0.00 0.00 61 1012.2
20260505091051 54 233 3.0 5.0 0.00 0.00 0.00 60 1012.2
20260505090618 53 215 2.0 4.0 0.00 0.00 0.00 61 1012.2
20260505090109 54 231 3.0 5.0 0.00 0.00 0.00 61 1012.1
20260505085520 54 233 2.0 5.0 0.00 0.00 0.00 60 1012.2
20260505085110 53 219 3.0 5.0 0.00 0.00 0.00 60 1012.1
20260505084619 53 234 3.0 5.0 0.00 0.00 0.00 62 1012.1
20260505084112 53 228 2.0 4.0 0.00 0.00 0.00 61 1012.0
20260505083603 54 240 2.0 5.0 0.00 0.00 0.00 60 1012.0
20260505083147 54 221 3.0 8.0 0.00 0.00 0.00 60 1012.0
20260505082600 54 223 4.0 8.0 0.00 0.00 0.00 60 1012.0
20260505082107 54 232 3.0 5.0 0.00 0.00 0.00 60 1012.0
20260505081646 54 229 3.0 5.0 0.00 0.00 0.00 60 1011.9
20260505081107 54 236 3.0 5.0 0.00 0.00 0.00 59 1012.0
20260505080548 54 227 3.0 4.0 0.00 0.00 0.00 59 1011.8
20260505080136 55 250 2.0 4.0 0.00 0.00 0.00 59 1011.9
20260505075559 55 249 3.0 4.0 0.00 0.00 0.00 59 1011.8
20260505075110 54 235 3.0 5.0 0.00 0.00 0.00 59 1011.8
20260505074624 55 235 3.0 5.0 0.00 0.00 0.00 59 1011.9
20260505074051 55 236 3.0 4.0 0.00 0.00 0.00 59 1011.8
20260505073558 55 227 3.0 4.0 0.00 0.00 0.00 58 1011.8
20260505073119 55 227 3.0 5.0 0.00 0.00 0.00 58 1011.9
20260505072548 55 243 3.0 5.0 0.00 0.00 0.00 58 1011.7
20260505072040 55 228 3.0 5.0 0.00 0.00 0.00 57 1011.7
20260505071626 55 233 3.0 5.0 0.00 0.00 0.00 59 1011.6
20260505071103 55 246 3.0 5.0 0.00 0.00 0.00 58 1011.5
20260505070521 55 252 3.0 5.0 0.00 0.00 0.00 58 1011.5
20260505070201 56 230 3.0 5.0 0.00 0.00 0.00 56 1011.5
20260505065526 56 232 2.0 4.0 0.00 0.00 0.00 56 1011.4
20260505065029 56 240 3.0 5.0 0.00 0.00 0.00 57 1011.3
20260505064621 56 236 3.0 5.0 0.00 0.00 0.00 57 1011.3
20260505064029 56 227 3.0 4.0 0.00 0.00 0.00 56 1011.2
20260505063541 56 229 3.0 4.0 0.00 0.00 0.00 56 1011.2
20260505063140 56 240 2.0 4.0 0.00 0.00 0.00 56 1011.1
20260505062521 56 240 3.0 4.0 0.00 0.00 0.00 55 1011.2
20260505062030 57 237 2.0 4.0 0.00 0.00 0.00 55 1011.1
20260505061640 57 235 2.0 5.0 0.00 0.00 0.00 55 1011.0
20260505061016 57 228 3.0 7.0 0.00 0.00 0.00 54 1011.0
20260505060524 57 239 2.0 5.0 0.00 0.00 0.00 53 1010.8
20260505060156 58 225 3.0 5.0 0.00 0.00 0.00 53 1010.7
20260505055517 58 223 3.0 5.0 0.00 0.00 0.00 52 1010.8
20260505055033 58 232 3.0 6.0 0.00 0.00 0.00 53 1010.7
20260505054652 58 218 3.0 5.0 0.00 0.00 0.00 51 1010.7
20260505054037 58 227 3.0 5.0 0.00 0.00 0.00 52 1010.8
20260505053537 59 251 3.0 7.0 0.00 0.00 0.00 51 1010.8
20260505053141 59 247 3.0 5.0 0.00 0.00 0.00 51 1010.9
20260505052517 59 240 3.0 5.0 0.00 0.00 0.00 49 1010.8
20260505052019 59 227 3.0 5.0 0.00 0.00 0.00 50 1010.8
20260505051615 59 240 3.0 5.0 0.00 0.00 0.00 49 1010.7
20260505051021 60 232 3.0 5.0 0.00 0.00 0.00 49 1010.7
20260505050537 60 223 3.0 5.0 0.00 0.00 0.00 49 1010.7
20260505050158 60 216 3.0 5.0 0.00 0.00 0.00 48 1010.6
20260505041638 62 239 3.0 5.0 0.00 0.00 0.00 44 1010.1
20260505041020 62 226 4.0 5.0 0.00 0.00 0.00 44 1010.0
20260505040538 63 226 2.0 4.0 0.00 0.00 0.00 44 1009.9
20260505040222 63 230 2.0 4.0 0.00 0.00 0.00 43 1009.8
20260505035530 63 235 2.0 5.0 0.00 0.00 0.00 45 1009.7
20260505035041 64 241 3.0 5.0 0.00 0.00 0.00 44 1009.8
20260505034642 64 252 2.0 4.0 0.00 0.00 0.00 42 1009.6
20260505034033 64 225 2.0 5.0 0.00 0.00 0.00 43 1009.4
20260505033533 64 217 3.0 5.0 0.00 0.00 0.00 43 1009.3
20260505033113 64 232 2.0 5.0 0.00 0.00 0.00 44 1009.3
20260505032521 65 230 3.0 5.0 0.00 0.00 0.00 43 1009.2
20260505032012 65 229 3.0 5.0 0.00 0.00 0.00 43 1009.2
20260505031630 65 227 3.0 5.0 0.00 0.00 0.00 43 1009.1
20260505031040 66 247 2.0 4.0 0.00 0.00 0.00 40 1009.0
20260505030524 66 228 2.0 5.0 0.00 0.00 0.00 42 1008.8
20260505030055 67 232 3.0 5.0 0.00 0.00 0.00 41 1008.8
20260505025533 66 257 2.0 5.0 0.00 0.00 0.00 43 1008.8
20260505025037 66 240 2.0 5.0 0.00 0.00 0.00 42 1008.7
20260505024607 66 228 2.0 5.0 0.00 0.00 0.00 42 1008.5
20260505024030 67 225 1.0 5.0 0.00 0.00 0.00 41 1008.5
20260505023515 67 237 2.0 5.0 0.00 0.00 0.00 42 1008.6
20260505023216 68 238 2.0 5.0 0.00 0.00 0.00 40 1008.6
20260505022533 69 236 3.0 5.0 0.00 0.00 0.00 39 1008.7
20260505022020 69 224 3.0 5.0 0.00 0.00 0.00 38 1008.8
20260505021602 69 217 2.0 5.0 0.00 0.00 0.00 37 1008.7
20260505021012 69 231 2.0 4.0 0.00 0.00 0.00 37 1008.7
20260505020515 70 224 2.0 4.0 0.00 0.00 0.00 37 1008.5
20260505020223 70 217 2.0 4.0 0.00 0.00 0.00 36 1008.5
20260505015533 71 215 2.0 3.0 0.00 0.00 0.00 33 1008.3
20260505015024 71 231 1.0 3.0 0.00 0.00 0.00 34 1008.3
20260505014549 71 236 1.0 3.0 0.00 0.00 0.00 36 1008.5
20260505014031 71 262 1.0 3.0 0.00 0.00 0.00 36 1008.5
20260505013537 71 239 1.0 2.0 0.00 0.00 0.00 35 1008.5
20260505013130 71 240 1.0 2.0 0.00 0.00 0.00 38 1008.4
20260505012517 72 242 1.0 3.0 0.00 0.00 0.00 37 1008.6
20260505012016 72 248 0.0 3.0 0.00 0.00 0.00 37 1008.7
20260505011626 73 253 1.0 3.0 0.00 0.00 0.00 35 1008.6
20260505011032 73 241 0.0 3.0 0.00 0.00 0.00 35 1008.7
20260505010529 73 281 1.0 2.0 0.00 0.00 0.00 33 1008.7
20260505010112 73 323 0.0 3.0 0.00 0.00 0.00 32 1008.6
20260505005520 74 234 1.0 3.0 0.00 0.00 0.00 33 1008.5
20260505005037 74 242 1.0 3.0 0.00 0.00 0.00 32 1008.5
20260505004619 75 279 1.0 4.0 0.00 0.00 0.00 30 1008.6
20260505004014 75 211 0.0 4.0 0.00 0.00 0.00 32 1008.5
20260505003538 76 219 1.0 2.0 0.00 0.00 0.00 28 1008.6
20260505003127 76 219 0.0 2.0 0.00 0.00 0.00 27 1008.6
20260505002523 76 196 0.0 2.0 0.00 0.00 0.00 28 1008.8
20260505002031 77 197 0.0 3.0 0.00 0.00 0.00 28 1008.8
20260505001626 77 196 1.0 3.0 0.00 0.00 0.00 28 1008.7
20260505001020 77 272 0.0 2.0 0.00 0.00 0.00 30 1008.7
20260505000518 77 272 0.0 3.0 0.00 0.00 0.00 27 1008.7
20260505000153 78 217 1.0 3.0 0.00 0.00 0.00 29 1008.7
20260504235519 78 217 1.0 3.0 0.00 0.00 0.00 28 1008.8
20260504235031 78 209 0.0 3.0 0.00 0.00 0.00 28 1008.8
20260504234606 78 117 0.0 3.0 0.00 0.00 0.00 26 1008.9
20260504234037 78 277 0.0 2.0 0.00 0.00 0.00 26 1008.9
20260504233519 79 228 0.0 3.0 0.00 0.00 0.00 26 1008.9
20260504233251 79 305 1.0 7.0 0.00 0.00 0.00 26 1009.0
20260504232524 79 220 0.0 2.0 0.00 0.00 0.00 24 1009.0
20260504232017 79 188 0.0 4.0 0.00 0.00 0.00 24 1008.8
20260504231648 80 352 1.0 4.0 0.00 0.00 0.00 24 1009.0
20260504231014 80 51 0.0 3.0 0.00 0.00 0.00 24 1009.0
20260504230535 80 300 0.0 3.0 0.00 0.00 0.00 24 1009.1
20260504230141 80 311 1.0 3.0 0.00 0.00 0.00 22 1009.2
20260504225542 80 201 1.0 3.0 0.00 0.00 0.00 23 1009.2
20260504225032 80 103 0.0 3.0 0.00 0.00 0.00 23 1009.2
20260504224643 80 266 1.0 3.0 0.00 0.00 0.00 25 1009.2
20260504224043 80 337 0.0 2.0 0.00 0.00 0.00 23 1009.2
20260504223541 81 204 0.0 3.0 0.00 0.00 0.00 23 1009.3
20260504223129 81 288 0.0 4.0 0.00 0.00 0.00 22 1009.3
20260504222531 81 266 1.0 4.0 0.00 0.00 0.00 23 1009.4
20260504222029 81 347 0.0 4.0 0.00 0.00 0.00 24 1009.3
20260504221610 80 352 1.0 7.0 0.00 0.00 0.00 23 1009.4
20260504221030 80 360 1.0 7.0 0.00 0.00 0.00 22 1009.4
20260504220528 81 281 2.0 7.0 0.00 0.00 0.00 23 1009.4
20260504220109 81 254 2.0 4.0 0.00 0.00 0.00 23 1009.7
20260504215538 82 156 1.0 4.0 0.00 0.00 0.00 23 1009.7
20260504215040 82 101 2.0 4.0 0.00 0.00 0.00 21 1009.7
20260504214559 82 183 1.0 5.0 0.00 0.00 0.00 20 1009.8
20260504214032 83 313 3.0 5.0 0.00 0.00 0.00 21 1009.8
20260504213518 83 91 1.0 5.0 0.00 0.00 0.00 20 1009.8
20260504213037 83 312 2.0 4.0 0.00 0.00 0.00 22 1009.9
20260504212538 83 238 0.0 8.0 0.00 0.00 0.00 23 1009.8
20260504212038 82 36 2.0 8.0 0.00 0.00 0.00 21 1009.9
20260504211653 82 211 1.0 6.0 0.00 0.00 0.00 22 1009.9
20260504211017 82 66 2.0 6.0 0.00 0.00 0.00 21 1009.8
20260504210529 82 254 1.0 7.0 0.00 0.00 0.00 22 1009.9
20260504210121 82 279 1.0 7.0 0.00 0.00 0.00 22 1009.9
20260504205537 82 311 2.0 6.0 0.00 0.00 0.00 22 1009.9
20260504205038 82 9 1.0 6.0 0.00 0.00 0.00 20 1010.1
20260504204623 83 217 1.0 5.0 0.00 0.00 0.00 22 1010.1
20260504204036 83 288 1.0 6.0 0.00 0.00 0.00 21 1010.2
20260504203525 83 250 1.0 4.0 0.00 0.00 0.00 23 1010.2
20260504203153 82 336 1.0 5.0 0.00 0.00 0.00 21 1010.3
20260504202530 82 48 1.0 4.0 0.00 0.00 0.00 20 1010.2
20260504202020 82 134 2.0 4.0 0.00 0.00 0.00 21 1010.3
20260504201616 82 49 1.0 6.0 0.00 0.00 0.00 22 1010.3
20260504201031 81 159 1.0 7.0 0.00 0.00 0.00 20 1010.3
20260504200530 81 183 2.0 9.0 0.00 0.00 0.00 22 1010.5
20260504200138 81 178 2.0 7.0 0.00 0.00 0.00 23 1010.5
20260504195541 81 228 2.0 6.0 0.00 0.00 0.00 21 1010.6
20260504195020 81 327 1.0 5.0 0.00 0.00 0.00 22 1010.4
20260504194545 81 134 1.0 4.0 0.00 0.00 0.00 22 1010.6
20260504194034 81 238 1.0 6.0 0.00 0.00 0.00 21 1010.6
20260504193538 81 352 2.0 6.0 0.00 0.00 0.00 22 1010.7
20260504193052 80 261 1.0 5.0 0.00 0.00 0.00 23 1010.8
20260504192530 80 100 1.0 7.0 0.00 0.00 0.00 22 1010.8
20260504192016 80 217 1.0 8.0 0.00 0.00 0.00 22 1010.9
20260504191610 80 241 1.0 8.0 0.00 0.00 0.00 21 1010.9
20260504191017 80 301 2.0 8.0 0.00 0.00 0.00 22 1011.0
20260504190517 80 302 3.0 8.0 0.00 0.00 0.00 23 1011.0
20260504190129 80 271 2.0 6.0 0.00 0.00 0.00 22 1011.0
20260504185532 80 304 3.0 7.0 0.00 0.00 0.00 24 1011.0
20260504185033 79 270 2.0 6.0 0.00 0.00 0.00 24 1011.0
20260504184559 79 325 3.0 8.0 0.00 0.00 0.00 25 1011.2
20260504184045 79 257 2.0 6.0 0.00 0.00 0.00 24 1011.2
20260504183524 79 335 1.0 4.0 0.00 0.00 0.00 25 1011.1
20260504183100 79 360 1.0 10.0 0.00 0.00 0.00 24 1011.1
20260504182536 78 253 3.0 10.0 0.00 0.00 0.00 24 1011.3
20260504182018 79 19 2.0 9.0 0.00 0.00 0.00 24 1011.3
20260504181600 79 293 2.0 9.0 0.00 0.00 0.00 26 1011.4
20260504181037 79 242 2.0 4.0 0.00 0.00 0.00 23 1011.3
20260504180523 79 202 2.0 5.0 0.00 0.00 0.00 24 1011.4
20260504180059 78 311 2.0 8.0 0.00 0.00 0.00 25 1011.4
20260504175537 78 21 3.0 8.0 0.00 0.00 0.00 23 1011.4
20260504175041 78 202 3.0 6.0 0.00 0.00 0.00 25 1011.4
20260504174615 78 283 1.0 7.0 0.00 0.00 0.00 25 1011.5
20260504174037 78 352 2.0 6.0 0.00 0.00 0.00 24 1011.4
20260504173541 77 79 1.0 4.0 0.00 0.00 0.00 24 1011.4
20260504173128 77 284 1.0 6.0 0.00 0.00 0.00 24 1011.5
20260504172537 77 343 1.0 6.0 0.00 0.00 0.00 25 1011.5
20260504172036 77 317 1.0 6.0 0.00 0.00 0.00 25 1011.5
20260504171615 77 219 1.0 5.0 0.00 0.00 0.00 24 1011.6
20260504171043 76 284 0.0 6.0 0.00 0.00 0.00 27 1011.7
20260504170532 76 352 1.0 5.0 0.00 0.00 0.00 26 1011.7
20260504170141 76 252 1.0 6.0 0.00 0.00 0.00 26 1011.5
20260504160103 68 360 1.0 4.0 0.00 0.00 0.00 36 1011.9
20260504151018 61 360 0.0 3.0 0.00 0.00 0.00 44 1012.2
20260504150534 60 287 0.0 2.0 0.00 0.00 0.00 47 1012.2
20260504150214 60 263 1.0 3.0 0.00 0.00 0.00 48 1012.2
20260504141045 54 229 0.0 2.0 0.00 0.00 0.00 59 1012.3
20260504140534 54 229 1.0 3.0 0.00 0.00 0.00 57 1012.3
20260504140215 53 229 1.0 3.0 0.00 0.00 0.00 57 1012.3
20260504130525 50 241 2.0 4.0 0.00 0.00 0.00 62 1012.1
20260504130221 50 242 2.0 4.0 0.00 0.00 0.00 62 1012.2
20260504120212 50 246 2.0 4.0 0.00 0.00 0.00 62 1012.0